Weather History for Charlotte, NC

Change the Weather History Date:

Wednesday, August 20, 2003

  Actual Average Record
Temperature  
Mean Temperature 78 °F 77 °F  
Max Temperature 86 °F 87 °F 103 °F (1925)
Min Temperature 71 °F 67 °F 56 °F (1918)
Degree Days  
Heating Degree Days 0 0  
Month to date heating degree days 0  
Since 1 June heating degree days 3  
Since 1 July heating degree days 0  
Cooling Degree Days 14 12  
Month to date cooling degree days 257  
Year to date cooling degree days 1151  
Since 1 June cooling degree days 988  
Growing Degree Days 28 (Base 50)    
Moisture  
Dew Point 71 °F    
Average Humidity 83    
Maximum Humidity 100    
Minimum Humidity 63    
Precipitation  
Precipitation 0.05 in 0.14 in 1.84 in (1898)
Month to date precipitation 2.76  
Year to date precipitation 27.14  
Snow  
Snow 0.00 in 0.00 in 0.00 in ()
Month to date snowfall 0.0  
Since 1 June snowfall 0.0  
Since 1 July snowfall 0.0  
Snow Depth -    
Sea Level Pressure  
Sea Level Pressure 30.16 in    
Wind  
Wind Speed 4 mph (NNE)    
Max Wind Speed 8 mph    
Max Gust Speed -    
Visibility 4 miles    
Events      
T = Trace of Precipitation, MM = Missing Value Source: NWS Daily Summary

Daily Weather History Graph

Daily Weather History Graph

Search for Another Location

Airport:

Trip Planner

Search our weather history database for the weather conditions in past years. The results will help you decide how hot, cold, wet, or windy it might be!

Date:

Astronomy

Aug. 20, 2003 Rise Set
Actual Time 6:47 AM EDT 8:06 PM EDT
Civil Twilight 6:20 AM EDT 8:33 PM EDT
Nautical Twilight 5:48 AM EDT 9:05 PM EDT
Astronomical Twilight 5:15 AM EDT 9:38 PM EDT
Moon 12:16 AM EDT (8/20) 2:48 PM EDT (8/20)
Length of Visible Light 14h 13m
Length of Day
13h 19m
Last Quarter, 44% of the Moon is Illuminated
Aug 20
Last Quarter
Aug 27
New
Sep 3
First Quarter
Sep 10
Full
Sep 18
Last Quarter

Hourly Weather History & Observations

Time (EDT) Temp. Heat Index Dew Point Humidity Pressure Visibility Wind Dir Wind Speed Gust Speed Precip Events Conditions
12:51 AM 71.1 °F - 68.0 °F 90% 30.17 in 6.0 mi WNW 5.8 mph - N/A   Clear
1:51 AM 72.0 °F - 70.0 °F 93% 30.15 in 4.0 mi NW 3.5 mph - N/A   Mostly Cloudy
2:51 AM 71.1 °F - 69.1 °F 93% 30.15 in 4.0 mi NW 5.8 mph - N/A   Partly Cloudy
3:51 AM 71.1 °F - 69.1 °F 93% 30.14 in 4.0 mi NNW 5.8 mph - N/A   Partly Cloudy
4:51 AM 71.1 °F - 68.0 °F 90% 30.14 in 5.0 mi NNW 4.6 mph - N/A   Partly Cloudy
5:51 AM 71.1 °F - 68.0 °F 90% 30.15 in 4.0 mi Calm Calm - N/A   Partly Cloudy
6:27 AM 71.6 °F - 69.8 °F 94% 30.19 in 2.0 mi ENE 3.5 mph - N/A   Mostly Cloudy
6:51 AM 71.1 °F - 68.0 °F 90% 30.17 in 2.0 mi North 4.6 mph - N/A   Partly Cloudy
7:10 AM 71.6 °F - 69.8 °F 94% 30.20 in 1.5 mi NE 5.8 mph - N/A   Scattered Clouds
7:20 AM 71.6 °F - 69.8 °F 94% 30.20 in 1.0 mi Variable 3.5 mph - N/A   Mostly Cloudy
7:51 AM 72.0 °F - 70.0 °F 93% 30.18 in 0.5 mi NE 4.6 mph - N/A   Mist
8:51 AM 73.0 °F - 71.1 °F 93% 30.19 in 0.5 mi Variable 5.8 mph - N/A   Overcast
9:51 AM 75.0 °F - 72.0 °F 90% 30.19 in 1.0 mi NE 4.6 mph - N/A   Overcast
10:51 AM 79.0 °F - 73.0 °F 82% 30.19 in 1.8 mi Variable 3.5 mph - N/A   Haze
11:06 AM 78.8 °F - 71.6 °F 78% 30.22 in 2.0 mi Calm Calm - N/A   Haze
11:26 AM 80.6 °F 85.4 °F 73.4 °F 79% 30.22 in 2.0 mi North 4.6 mph - N/A   Haze
11:34 AM 80.6 °F 85.4 °F 73.4 °F 79% 30.22 in 3.0 mi NNE 4.6 mph - N/A   Haze
11:51 AM 81.1 °F 86.6 °F 74.1 °F 79% 30.19 in 3.0 mi Variable 4.6 mph - N/A   Haze
12:51 PM 84.0 °F 89.6 °F 72.0 °F 67% 30.18 in 3.0 mi Variable 3.5 mph - N/A   Haze
1:51 PM 82.0 °F 86.7 °F 72.0 °F 71% 30.17 in 3.0 mi Variable 4.6 mph - N/A   Haze
2:51 PM 84.0 °F 90.2 °F 73.0 °F 69% 30.16 in 3.0 mi SE 6.9 mph - N/A   Haze
3:51 PM 86.0 °F 93.0 °F 73.0 °F 65% 30.14 in 6.0 mi Variable 3.5 mph - N/A   Haze
4:51 PM 84.9 °F 90.1 °F 71.1 °F 63% 30.12 in 7.0 mi SSE 5.8 mph - N/A   Partly Cloudy
5:51 PM 84.0 °F 89.0 °F 71.1 °F 65% 30.12 in 7.0 mi South 6.9 mph - N/A   Partly Cloudy
6:51 PM 82.0 °F 87.4 °F 73.0 °F 74% 30.11 in 7.0 mi Variable 3.5 mph - N/A   Partly Cloudy
7:51 PM 82.0 °F 85.9 °F 70.0 °F 67% 30.11 in 7.0 mi ESE 8.1 mph - N/A   Scattered Clouds
8:51 PM 79.0 °F - 72.0 °F 79% 30.13 in 8.0 mi SE 5.8 mph - N/A   Clear
9:51 PM 75.0 °F - 72.0 °F 90% 30.14 in 7.0 mi Calm Calm - N/A   Clear
10:51 PM 73.0 °F - 73.0 °F 100% 30.15 in 5.0 mi Calm Calm - N/A   Partly Cloudy
11:51 PM 73.9 °F - 72.0 °F 93% 30.15 in 6.0 mi Calm Calm - N/A   Scattered Clouds